Location: Helsinki
(60.1699°N, 24.9384°E)
Time: 20:30:39
(UTC+02:00)

Transit 4A - Pass Details

Date: 03 November 2020
Orbit: 862 x 982 km, 66.8° (Epoch: 30 November)

Event Time Altitude Azimuth Distance (km) Brightness Sun altitude
Rises 21:51:29 0° 310° (NW) 3,697 11.9 -39.2°
Reaches altitude 10° 21:54:05 10° 308° (NW) 2,748 11.0 -39.4°
Enters shadow 21:57:28 33° 300° (WNW) 1,595 9.4 -39.7°
Maximum altitude 22:00:28 68° 228° (SW) 1,052 - -39.9°
Drops below altitude 10° 22:06:46 10° 146° (SSE) 2,706 - -40.4°
Sets 22:09:18 0° 144° (SE) 3,636 - -40.6°
